N853CM KBZN-KEGE

Flight info

Callsign N853CM
Flight time 1h 17m
Altitude 45000
Route BOY/N0495F430 HYPPE AAVON1
Aircraft C750/M-SBDE3FGHRWXY/S

Departure

Time 2026-04-29 21:28
Airport Bozeman Yellowstone International Airport (KBZN)

Arrival

Time 2026-04-29 22:45
Airport Eagle County Regional Airport (KEGE)
Time Latitude Longitude Altitude Speed Heading
2026-04-29 20:59 45.76915 -111.15741 4477 ft 0 kts 226°
2026-04-29 21:08 45.76915 -111.15740 4487 ft 0 kts 226°
2026-04-29 21:15 45.76915 -111.15743 4487 ft 1 kts 249°
2026-04-29 21:15 45.76920 -111.15746 4477 ft 1 kts 339°
2026-04-29 21:15 45.76941 -111.15726 4477 ft 9 kts 27°
2026-04-29 21:16 45.77021 -111.15603 4477 ft 24 kts 44°
2026-04-29 21:16 45.77132 -111.15440 4477 ft 19 kts 46°
2026-04-29 21:16 45.77179 -111.15423 4477 ft 6 kts 272°
2026-04-29 21:16 45.77185 -111.15437 4477 ft 0 kts 355°
2026-04-29 21:17 45.77187 -111.15428 4477 ft 2 kts 64°
2026-04-29 21:17 45.77201 -111.15376 4477 ft 11 kts 71°
2026-04-29 21:17 45.77223 -111.15283 4477 ft 7 kts 65°
2026-04-29 21:17 45.77242 -111.15224 4477 ft 6 kts 61°
2026-04-29 21:18 45.77264 -111.15121 4477 ft 14 kts 75°
2026-04-29 21:18 45.77284 -111.15001 4477 ft 9 kts 78°
2026-04-29 21:18 45.77292 -111.14968 4477 ft 2 kts 46°
2026-04-29 21:18 45.77309 -111.14972 4477 ft 3 kts 333°
2026-04-29 21:19 45.77352 -111.15032 4477 ft 12 kts 315°
2026-04-29 21:19 45.77412 -111.15113 4477 ft 11 kts 315°
2026-04-29 21:19 45.77463 -111.15185 4477 ft 10 kts 317°
2026-04-29 21:19 45.77525 -111.15272 4477 ft 14 kts 316°
2026-04-29 21:20 45.77591 -111.15363 4477 ft 12 kts 316°
2026-04-29 21:20 45.77649 -111.15445 4477 ft 11 kts 315°
2026-04-29 21:20 45.77716 -111.15535 4477 ft 18 kts 316°
2026-04-29 21:20 45.77821 -111.15682 4477 ft 21 kts 316°
2026-04-29 21:21 45.77922 -111.15823 4478 ft 19 kts 316°
2026-04-29 21:21 45.78015 -111.15952 4478 ft 18 kts 315°
2026-04-29 21:21 45.78101 -111.16071 4478 ft 16 kts 316°
2026-04-29 21:21 45.78179 -111.16180 4477 ft 15 kts 315°
2026-04-29 21:22 45.78249 -111.16277 4477 ft 13 kts 316°
2026-04-29 21:22 45.78322 -111.16378 4477 ft 18 kts 315°
2026-04-29 21:22 45.78421 -111.16516 4478 ft 19 kts 316°
2026-04-29 21:22 45.78514 -111.16645 4478 ft 18 kts 316°
2026-04-29 21:23 45.78598 -111.16763 4478 ft 16 kts 316°
2026-04-29 21:23 45.78674 -111.16864 4478 ft 9 kts 340°
2026-04-29 21:23 45.78684 -111.16853 4478 ft 2 kts 84°
2026-04-29 21:23 45.78687 -111.16818 4478 ft 3 kts 73°
2026-04-29 21:24 45.78703 -111.16781 4478 ft 8 kts 49°
2026-04-29 21:24 45.78735 -111.16738 4478 ft 0 kts 45°
2026-04-29 21:25 45.78735 -111.16737 4478 ft 1 kts 45°
2026-04-29 21:25 45.78758 -111.16703 4478 ft 8 kts 46°
2026-04-29 21:25 45.78789 -111.16657 4480 ft 5 kts 46°
2026-04-29 21:26 45.78792 -111.16629 4480 ft 3 kts 109°
2026-04-29 21:26 45.78789 -111.16621 4480 ft 2 kts 123°
2026-04-29 21:27 45.78786 -111.16615 4480 ft 3 kts 128°
2026-04-29 21:27 45.78713 -111.16512 4479 ft 43 kts 135°
2026-04-29 21:27 45.78222 -111.15834 4479 ft 140 kts 136°
2026-04-29 21:28 45.77487 -111.14754 4970 ft 147 kts 133°
2026-04-29 21:28 45.76767 -111.13726 5681 ft 151 kts 137°
2026-04-29 21:28 45.75637 -111.13275 5869 ft 191 kts 179°
2026-04-29 21:28 45.74256 -111.13778 6171 ft 224 kts 209°
2026-04-29 21:29 45.73175 -111.15499 6438 ft 254 kts 245°
2026-04-29 21:29 45.72708 -111.18058 6688 ft 277 kts 257°
2026-04-29 21:29 45.72067 -111.20672 7506 ft 277 kts 251°
2026-04-29 21:29 45.71406 -111.23253 8628 ft 277 kts 253°
2026-04-29 21:30 45.70936 -111.25956 9449 ft 284 kts 269°
2026-04-29 21:30 45.71029 -111.28767 10418 ft 285 kts 270°
2026-04-29 21:30 45.70368 -111.31469 11332 ft 296 kts 237°
2026-04-29 21:30 45.68755 -111.33275 12228 ft 304 kts 204°
2026-04-29 21:31 45.66605 -111.33752 12576 ft 330 kts 176°
2026-04-29 21:31 45.64321 -111.32778 12613 ft 357 kts 153°
2026-04-29 21:31 45.62393 -111.30450 12981 ft 367 kts 130°
2026-04-29 21:31 45.60808 -111.27594 13810 ft 368 kts 127°
2026-04-29 21:32 45.59745 -111.25686 14197 ft 372 kts 128°
2026-04-29 21:32 45.57351 -111.22126 14998 ft 378 kts 136°
2026-04-29 21:32 45.55413 -111.19531 15526 ft 384 kts 135°
2026-04-29 21:32 45.54155 -111.17722 16035 ft 384 kts 133°
2026-04-29 21:33 45.52319 -111.14930 16650 ft 387 kts 133°
2026-04-29 21:33 45.50448 -111.12136 17302 ft 390 kts 134°
2026-04-29 21:33 45.48518 -111.09384 17782 ft 395 kts 135°
2026-04-29 21:33 45.46573 -111.06594 18425 ft 398 kts 135°
2026-04-29 21:34 45.44654 -111.03776 18921 ft 402 kts 134°
2026-04-29 21:34 45.42701 -111.00913 19551 ft 404 kts 135°
2026-04-29 21:34 45.40706 -110.98035 20074 ft 408 kts 135°
2026-04-29 21:34 45.38702 -110.95148 20602 ft 413 kts 135°
2026-04-29 21:35 45.36680 -110.92215 21147 ft 417 kts 135°
2026-04-29 21:35 45.34657 -110.89279 21785 ft 421 kts 135°
2026-04-29 21:35 45.32585 -110.86290 22433 ft 425 kts 135°
2026-04-29 21:35 45.30487 -110.83271 23031 ft 429 kts 135°
2026-04-29 21:36 45.28370 -110.80219 23642 ft 434 kts 135°
2026-04-29 21:36 45.26262 -110.77182 24167 ft 439 kts 135°
2026-04-29 21:36 45.24107 -110.74084 24660 ft 443 kts 135°
2026-04-29 21:36 45.21923 -110.70949 25170 ft 447 kts 135°
2026-04-29 21:37 45.19726 -110.67798 25697 ft 451 kts 135°
2026-04-29 21:37 45.17510 -110.64623 26229 ft 455 kts 135°
2026-04-29 21:37 45.15295 -110.61453 26751 ft 458 kts 135°
2026-04-29 21:37 45.13036 -110.58224 27265 ft 462 kts 135°
2026-04-29 21:38 45.10757 -110.54971 27815 ft 466 kts 135°
2026-04-29 21:38 45.08458 -110.51693 28335 ft 470 kts 136°
2026-04-29 21:38 45.06135 -110.48385 28821 ft 475 kts 136°
2026-04-29 21:38 45.03790 -110.45050 29340 ft 479 kts 136°
2026-04-29 21:39 45.01460 -110.41741 29831 ft 483 kts 136°
2026-04-29 21:39 44.99074 -110.38354 30346 ft 487 kts 136°
2026-04-29 21:39 44.96666 -110.34943 30763 ft 491 kts 136°
2026-04-29 21:39 44.94236 -110.31504 31195 ft 494 kts 136°
2026-04-29 21:40 44.91813 -110.28079 31829 ft 492 kts 136°
2026-04-29 21:40 44.89423 -110.24703 32481 ft 490 kts 136°
2026-04-29 21:40 44.87016 -110.21311 33119 ft 489 kts 136°
2026-04-29 21:40 44.84610 -110.17923 33766 ft 487 kts 136°
2026-04-29 21:41 44.82209 -110.14546 34412 ft 486 kts 136°
2026-04-29 21:41 44.79814 -110.11182 34919 ft 487 kts 136°
2026-04-29 21:41 44.77415 -110.07817 35424 ft 487 kts 136°
2026-04-29 21:41 44.75001 -110.04436 35910 ft 488 kts 137°
2026-04-29 21:42 44.72592 -110.01064 36396 ft 489 kts 137°
2026-04-29 21:42 44.70208 -109.97731 36942 ft 489 kts 136°
2026-04-29 21:42 44.67783 -109.94346 37469 ft 489 kts 136°
2026-04-29 21:42 44.65366 -109.90978 38019 ft 489 kts 136°
2026-04-29 21:43 44.62938 -109.87596 38572 ft 490 kts 136°
2026-04-29 21:43 44.60537 -109.84258 39076 ft 490 kts 136°
2026-04-29 21:43 44.58120 -109.80899 39588 ft 488 kts 136°
2026-04-29 21:43 44.55700 -109.77542 40050 ft 488 kts 136°
2026-04-29 21:44 44.53276 -109.74185 40482 ft 489 kts 136°
2026-04-29 21:44 44.50878 -109.70867 40924 ft 489 kts 136°
2026-04-29 21:44 44.48453 -109.67514 41387 ft 489 kts 136°
2026-04-29 21:44 44.46026 -109.64164 41838 ft 489 kts 136°
2026-04-29 21:45 44.43598 -109.60815 42296 ft 489 kts 136°
2026-04-29 21:45 44.41168 -109.57470 42748 ft 489 kts 137°
2026-04-29 21:45 44.38769 -109.54170 43199 ft 489 kts 137°
2026-04-29 21:45 44.36336 -109.50827 43628 ft 489 kts 137°
2026-04-29 21:46 44.33895 -109.47480 44057 ft 490 kts 137°
2026-04-29 21:46 44.31463 -109.44147 44437 ft 490 kts 137°
2026-04-29 21:46 44.29022 -109.40807 44857 ft 490 kts 137°
2026-04-29 21:46 44.26596 -109.37489 45233 ft 486 kts 137°
2026-04-29 21:47 44.24187 -109.34201 45267 ft 494 kts 137°
2026-04-29 21:47 44.19173 -109.27371 45289 ft 511 kts 137°
2026-04-29 21:48 44.14005 -109.20343 45288 ft 526 kts 137°
2026-04-29 21:48 44.08717 -109.13176 45270 ft 538 kts 137°
2026-04-29 21:49 44.03322 -109.05878 45265 ft 538 kts 137°
2026-04-29 21:49 43.97974 -108.98670 45257 ft 538 kts 137°
2026-04-29 21:50 43.92585 -108.91419 45233 ft 539 kts 137°
2026-04-29 21:50 43.87201 -108.84200 45210 ft 541 kts 137°
2026-04-29 21:51 43.81768 -108.76928 45189 ft 540 kts 137°
2026-04-29 21:51 43.73651 -108.66107 45192 ft 540 kts 137°
2026-04-29 21:52 43.68243 -108.58919 45189 ft 541 kts 138°
2026-04-29 21:52 43.62834 -108.51750 45198 ft 540 kts 138°
2026-04-29 21:53 43.57399 -108.44565 45172 ft 539 kts 138°
2026-04-29 21:53 43.51733 -108.37886 45152 ft 535 kts 149°
2026-04-29 21:54 43.45093 -108.33559 45148 ft 525 kts 166°
2026-04-29 21:54 43.37940 -108.32066 45150 ft 515 kts 184°
2026-04-29 21:55 43.30976 -108.33466 45152 ft 505 kts 200°
2026-04-29 21:55 43.24365 -108.36680 45177 ft 504 kts 204°
2026-04-29 21:56 43.17625 -108.39488 45175 ft 508 kts 196°
2026-04-29 21:56 43.10691 -108.41265 45169 ft 509 kts 195°
2026-04-29 21:57 43.03852 -108.43628 45172 ft 505 kts 198°
2026-04-29 21:57 42.96923 -108.45741 45185 ft 509 kts 195°
2026-04-29 21:58 42.90079 -108.47940 45146 ft 507 kts 198°
2026-04-29 21:58 42.83223 -108.50106 45152 ft 506 kts 196°
2026-04-29 21:59 42.76366 -108.52257 45155 ft 504 kts 197°
2026-04-29 21:59 42.69506 -108.54431 45137 ft 505 kts 197°
2026-04-29 22:00 42.62686 -108.56557 45152 ft 505 kts 197°
2026-04-29 22:00 42.55824 -108.58719 45148 ft 505 kts 197°
2026-04-29 22:01 42.48946 -108.60860 45124 ft 508 kts 197°
2026-04-29 22:01 42.42075 -108.63006 45128 ft 505 kts 197°
2026-04-29 22:02 42.35262 -108.65125 45123 ft 505 kts 197°
2026-04-29 22:02 42.28403 -108.67255 45107 ft 505 kts 197°
2026-04-29 22:03 42.21585 -108.69365 45128 ft 504 kts 197°
2026-04-29 22:03 42.14728 -108.71486 45127 ft 504 kts 197°
2026-04-29 22:04 42.07881 -108.73596 45122 ft 504 kts 197°
2026-04-29 22:04 42.01069 -108.75692 45119 ft 501 kts 197°
2026-04-29 22:05 41.94305 -108.77770 45114 ft 502 kts 197°
2026-04-29 22:06 41.84079 -108.80900 45128 ft 501 kts 197°
2026-04-29 22:06 41.77270 -108.82979 45141 ft 501 kts 197°
2026-04-29 22:07 41.70509 -108.85039 45157 ft 501 kts 197°
2026-04-29 22:07 41.63698 -108.87110 45163 ft 500 kts 197°
2026-04-29 22:08 41.56888 -108.89175 45175 ft 500 kts 197°
2026-04-29 22:08 41.50115 -108.91226 45171 ft 500 kts 197°
2026-04-29 22:09 41.43357 -108.93267 45124 ft 500 kts 197°
2026-04-29 22:09 41.36559 -108.95315 45127 ft 499 kts 197°
2026-04-29 22:10 41.29769 -108.97358 45133 ft 500 kts 197°
2026-04-29 22:10 41.23023 -108.99383 45130 ft 500 kts 197°
2026-04-29 22:11 41.16235 -109.01416 45124 ft 500 kts 197°
2026-04-29 22:11 41.09466 -109.03439 45127 ft 500 kts 197°
2026-04-29 22:12 41.02658 -109.05469 45129 ft 500 kts 197°
2026-04-29 22:12 40.95873 -109.07487 45120 ft 498 kts 197°
2026-04-29 22:13 40.89121 -109.09494 45110 ft 498 kts 197°
2026-04-29 22:13 40.82381 -109.11490 45106 ft 499 kts 197°
2026-04-29 22:14 40.75605 -109.13494 45108 ft 496 kts 197°
2026-04-29 22:14 40.68891 -109.15476 45092 ft 496 kts 197°
2026-04-29 22:15 40.62140 -109.17464 45095 ft 496 kts 197°
2026-04-29 22:15 40.55368 -109.19454 45094 ft 495 kts 198°
2026-04-29 22:16 40.48581 -109.20875 45093 ft 504 kts 187°
2026-04-29 22:16 40.41564 -109.19771 45094 ft 517 kts 169°
2026-04-29 22:17 40.35945 -109.16757 45067 ft 527 kts 155°
2026-04-29 22:17 40.31923 -109.13096 45060 ft 535 kts 144°
2026-04-29 22:17 40.29264 -109.09699 45064 ft 541 kts 135°
2026-04-29 22:18 40.24811 -109.01667 45073 ft 546 kts 126°
2026-04-29 22:18 40.21341 -108.94749 45066 ft 545 kts 129°
2026-04-29 22:19 40.16790 -108.86839 45054 ft 544 kts 129°
2026-04-29 22:19 40.12498 -108.78707 45055 ft 545 kts 128°
2026-04-29 22:20 40.08006 -108.70685 45066 ft 546 kts 129°
2026-04-29 22:20 40.03601 -108.62571 45031 ft 548 kts 128°
2026-04-29 22:21 39.99166 -108.54569 44966 ft 542 kts 129°
2026-04-29 22:21 39.96990 -108.50641 44435 ft 529 kts 129°
2026-04-29 22:21 39.94875 -108.46774 43911 ft 515 kts 129°
2026-04-29 22:21 39.92826 -108.43050 43573 ft 499 kts 130°
2026-04-29 22:22 39.90785 -108.39393 42516 ft 499 kts 131°
2026-04-29 22:22 39.88730 -108.35720 41341 ft 503 kts 131°
2026-04-29 22:22 39.86681 -108.32017 40181 ft 505 kts 131°
2026-04-29 22:22 39.84624 -108.28294 39058 ft 508 kts 132°
2026-04-29 22:23 39.82653 -108.24497 37705 ft 516 kts 126°
2026-04-29 22:23 39.81059 -108.20270 36480 ft 521 kts 116°
2026-04-29 22:23 39.79955 -108.15775 35357 ft 521 kts 107°
2026-04-29 22:23 39.79360 -108.11132 34196 ft 519 kts 97°
2026-04-29 22:24 39.79468 -108.06517 32697 ft 518 kts 81°
2026-04-29 22:24 39.80294 -108.01955 31218 ft 513 kts 72°
2026-04-29 22:24 39.81573 -107.97706 30576 ft 493 kts 64°
2026-04-29 22:25 39.84559 -107.89654 30684 ft 509 kts 65°
2026-04-29 22:25 39.85862 -107.85491 30711 ft 475 kts 68°
2026-04-29 22:25 39.87051 -107.81621 30632 ft 448 kts 66°
2026-04-29 22:25 39.88354 -107.77796 30019 ft 478 kts 64°
2026-04-29 22:26 39.89761 -107.73794 29358 ft 497 kts 65°
2026-04-29 22:26 39.91118 -107.69664 28690 ft 493 kts 66°
2026-04-29 22:26 39.92425 -107.65543 28052 ft 489 kts 66°
2026-04-29 22:26 39.93767 -107.61474 27405 ft 484 kts 65°
2026-04-29 22:27 39.95104 -107.57530 26788 ft 479 kts 65°
2026-04-29 22:27 39.96420 -107.53559 26160 ft 474 kts 66°
2026-04-29 22:27 39.97697 -107.49606 25536 ft 468 kts 66°
2026-04-29 22:27 39.98968 -107.45712 24926 ft 463 kts 66°
2026-04-29 22:28 40.00219 -107.41936 24332 ft 450 kts 65°
2026-04-29 22:28 40.01430 -107.38259 23745 ft 430 kts 66°
2026-04-29 22:28 40.02548 -107.34711 23124 ft 417 kts 69°
2026-04-29 22:28 40.03125 -107.31056 22633 ft 407 kts 82°
2026-04-29 22:29 40.03502 -107.27409 22178 ft 410 kts 82°
2026-04-29 22:29 40.03897 -107.23728 21688 ft 407 kts 82°
2026-04-29 22:29 40.04305 -107.20071 21203 ft 404 kts 82°
2026-04-29 22:29 40.04702 -107.16451 20719 ft 400 kts 82°
2026-04-29 22:30 40.05079 -107.12905 20251 ft 398 kts 82°
2026-04-29 22:30 40.05459 -107.09341 19781 ft 393 kts 82°
2026-04-29 22:30 40.05840 -107.05809 19314 ft 391 kts 82°
2026-04-29 22:30 40.06217 -107.02300 18837 ft 386 kts 82°
2026-04-29 22:31 40.06580 -106.98887 18389 ft 380 kts 82°
2026-04-29 22:31 40.06933 -106.95555 17907 ft 359 kts 82°
2026-04-29 22:31 40.07268 -106.92402 17486 ft 341 kts 82°
2026-04-29 22:31 40.07584 -106.89410 17078 ft 325 kts 82°
2026-04-29 22:32 40.07883 -106.86574 16703 ft 312 kts 82°
2026-04-29 22:32 40.08174 -106.83801 16342 ft 305 kts 82°
2026-04-29 22:32 40.08359 -106.81059 16016 ft 300 kts 93°
2026-04-29 22:32 40.08111 -106.78399 16068 ft 296 kts 98°
2026-04-29 22:33 40.07821 -106.75731 16079 ft 302 kts 98°
2026-04-29 22:33 40.07544 -106.72998 16078 ft 304 kts 98°
2026-04-29 22:33 40.07273 -106.70242 16080 ft 305 kts 98°
2026-04-29 22:33 40.07012 -106.67480 16015 ft 310 kts 98°
2026-04-29 22:34 40.06756 -106.64671 15763 ft 311 kts 97°
2026-04-29 22:34 40.06502 -106.61875 15456 ft 309 kts 97°
2026-04-29 22:34 40.06252 -106.59135 15196 ft 306 kts 97°
2026-04-29 22:34 40.06001 -106.56384 14998 ft 302 kts 97°
2026-04-29 22:35 40.05752 -106.53679 14861 ft 299 kts 97°
2026-04-29 22:35 40.05506 -106.51004 14767 ft 298 kts 97°
2026-04-29 22:35 40.05259 -106.48283 14681 ft 303 kts 97°
2026-04-29 22:35 40.05011 -106.45564 14613 ft 300 kts 97°
2026-04-29 22:36 40.04763 -106.42846 14569 ft 303 kts 97°
2026-04-29 22:36 40.04315 -106.40061 14512 ft 335 kts 113°
2026-04-29 22:36 40.02853 -106.37545 14477 ft 363 kts 142°
2026-04-29 22:36 40.00575 -106.36097 14549 ft 366 kts 169°
2026-04-29 22:37 39.98083 -106.36097 14640 ft 363 kts 195°
2026-04-29 22:37 39.95852 -106.37523 14719 ft 359 kts 220°
2026-04-29 22:37 39.94239 -106.40004 14870 ft 356 kts 237°
2026-04-29 22:37 39.92921 -106.42757 15101 ft 359 kts 239°
2026-04-29 22:38 39.91552 -106.45499 15315 ft 361 kts 236°
2026-04-29 22:38 39.90034 -106.48056 15507 ft 362 kts 231°
2026-04-29 22:38 39.88215 -106.50340 15661 ft 365 kts 222°
2026-04-29 22:38 39.86224 -106.52405 15807 ft 366 kts 219°
2026-04-29 22:39 39.84211 -106.54488 15407 ft 367 kts 222°
2026-04-29 22:39 39.82329 -106.56696 14904 ft 361 kts 225°
2026-04-29 22:39 39.80496 -106.58923 14415 ft 359 kts 224°
2026-04-29 22:39 39.78618 -106.61065 13929 ft 357 kts 222°
2026-04-29 22:40 39.76753 -106.63139 13402 ft 355 kts 223°
2026-04-29 22:40 39.74911 -106.65244 12877 ft 352 kts 224°
2026-04-29 22:40 39.73149 -106.67296 12326 ft 310 kts 224°
2026-04-29 22:40 39.71877 -106.69303 11751 ft 269 kts 241°
2026-04-29 22:41 39.70989 -106.71241 11232 ft 236 kts 240°
2026-04-29 22:41 39.70180 -106.72942 10757 ft 206 kts 240°
2026-04-29 22:41 39.69487 -106.74400 9899 ft 177 kts 241°
2026-04-29 22:41 39.68876 -106.75706 9048 ft 165 kts 242°
2026-04-29 22:42 39.68300 -106.76934 8763 ft 147 kts 242°
2026-04-29 22:42 39.67812 -106.77973 8623 ft 128 kts 244°
2026-04-29 22:42 39.67355 -106.78949 8645 ft 130 kts 243°
2026-04-29 22:42 39.66873 -106.79975 8363 ft 132 kts 243°
2026-04-29 22:43 39.66390 -106.80999 8253 ft 132 kts 242°
2026-04-29 22:43 39.65910 -106.82019 8047 ft 133 kts 244°
2026-04-29 22:43 39.65477 -106.83047 7850 ft 128 kts 252°
2026-04-29 22:43 39.65286 -106.84167 7579 ft 126 kts 263°
2026-04-29 22:44 39.65128 -106.85268 7385 ft 121 kts 262°
2026-04-29 22:44 39.64970 -106.86356 7214 ft 127 kts 262°
2026-04-29 22:44 39.64808 -106.87485 7107 ft 125 kts 262°
2026-04-29 22:44 39.64651 -106.88567 6857 ft 118 kts 256°
2026-04-29 22:45 39.64505 -106.89591 6667 ft 116 kts 255°
2026-04-29 22:45 39.64358 -106.90612 6540 ft 111 kts 258°
2026-04-29 22:45 39.64296 -106.91411 6521 ft 52 kts 261°
2026-04-29 22:45 39.64256 -106.91798 6505 ft 43 kts 261°
2026-04-29 22:46 39.64213 -106.92181 6491 ft 41 kts 262°
2026-04-29 22:46 39.64176 -106.92526 6478 ft 37 kts 262°
2026-04-29 22:46 39.64143 -106.92770 6481 ft 16 kts 240°
2026-04-29 22:46 39.64079 -106.92796 6478 ft 8 kts 171°
2026-04-29 22:47 39.64056 -106.92783 6478 ft 3 kts 145°
2026-04-29 22:47 39.64046 -106.92764 6471 ft 2 kts 119°
2026-04-29 22:47 39.64044 -106.92760 6471 ft 0 kts 117°
2026-04-29 22:49 39.64042 -106.92755 6471 ft 3 kts 111°
2026-04-29 22:49 39.64044 -106.92716 6479 ft 4 kts 81°
2026-04-29 22:49 39.64045 -106.92700 6480 ft 0 kts 82°
2026-04-29 22:49 39.64049 -106.92670 6481 ft 7 kts 82°
2026-04-29 22:50 39.64054 -106.92621 6482 ft 3 kts 82°
2026-04-29 22:50 39.64056 -106.92595 6483 ft 6 kts 82°
2026-04-29 22:50 39.64063 -106.92532 6485 ft 10 kts 82°
2026-04-29 22:50 39.64077 -106.92417 6485 ft 13 kts 81°
2026-04-29 22:51 39.64088 -106.92307 6486 ft 11 kts 82°
2026-04-29 22:51 39.64091 -106.92235 6487 ft 2 kts 119°